Tracking 22458 objects as of 2-Mar-2021
HD Live streaming from Space Station
objects crossing your sky now

STARLINK-2133

Track STARLINK-2133 now!
10-day predictions
STARLINK-2133 is classified as:


NORAD ID: 47406
Int'l Code: 2021-005BK
Perigee: 386.0 km
Apogee: 387.2 km
Inclination: 53.1 °
Period: 92.1 minutes
Semi major axis: 6757 km
RCS: Unknown
Launch date: January 20, 2021
Source: United States (US)
Launch site: AIR FORCE EASTERN TEST RANGE (AFETR)
aabbcc
Your satellite tracking list
Your tracking list is empty




NASA's NSSDC Master Catalog

Two Line Element Set (TLE):
1 47406U 21005BK  21060.91667824 -.00017545  00000-0 -18561-3 0  9999
2 47406  53.0555  12.4492 0000866  58.2031  67.5466 15.62834358  1827
Source of the keplerian elements: AFSPC